Miscellaneous Local Product
Issued by NWS North Platte, NE

Home | Current Version | Previous Version | Text Only | Print | Product List | Glossary On
Versions: 1 2 3 4 5 6 7 8 9 10 11 12 13 14 15 16 17 18 19 20 21 22 23 24 25 26 27 28 29 30 31 32 33 34 35 36 37 38 39 40 41 42 43 44 45 46 47 48 49 50
000
AXUS43 KLBF 051210
MISLBF


WESTERN AND NORTH CENTRAL NEBRASKA HOURLY WEATHER ROUNDUP
NATIONAL WEATHER SERVICE NORTH PLATTE NE
700 AM CDT WED AUG 05 2015

***STATIONS NOT REPORTING VARIABLES SUCH AS SKY/WEATHER OR
PRESSURE ARE PROVIDED BY THE NEBRASKA DEPARTMENT OF
ROADS...RAWS...AND APRS NETWORKS...AND ARE NOT UNDER
NATIONAL WEATHER SERVICE QUALITY CONTROL***

...OBSERVATIONS IN AND NEAR THE EASTERN PANHANDLE OF NEBRASKA...

CITY           SKY/WX    TMP DP  RH WIND       PRES   REMARKS
PINE RIDGE     CLEAR     60  56  86 CALM      30.01F
CHADRON        CLEAR     56  54  93 SW5       30.02S
ALLIANCE       FOG       53  52  96 CALM      30.05S VSB 1/4
SIDNEY         CLEAR     52  52 100 NW6       30.09R
BIG SPRINGS      N/A     58  57  98 CALM        N/A
$$

...OBSERVATIONS IN NORTH CENTRAL NEBRASKA...

CITY           SKY/WX    TMP DP  RH WIND       PRES   REMARKS
THEDFORD       FOG       63  62  99 W3        30.04S VSB<1/4
AINSWORTH      CLOUDY    65  65  99 CALM      30.01S FOG
O`NEILL        CLOUDY    67  66  98 CALM      30.01S FOG
ORD            MOCLDY    62  61  96 CALM      30.00R
BROKEN BOW     FOG       65  63  93 CALM      30.00S VSB 1/4
SPRINGVIEW       N/A     65  63  94 CALM        N/A
CHAMBERS         N/A     64  63  96 CALM        N/A
EWING            N/A     66  64  95 CALM        N/A
$$

...OBSERVATIONS IN SOUTHWEST NEBRASKA AND FAR NORTHEAST COLORADO...

CITY           SKY/WX    TMP DP  RH WIND       PRES   REMARKS
WRAY           FAIR     N/A N/A N/A CALM      30.07R
HOLYOKE        FOG       59  55  88 CALM      30.08R VSB<1/4
IMPERIAL       CLOUDY    58  56  93 CALM      30.05R
OGALLALA       FOG       60  60  99 CALM      30.06R VSB<1/4
NORTH PLATTE   FOG       63  62  97 SW3       30.03R VSB 1/4
MCCOOK         CLEAR     58  57  97 N3        30.03R
LEXINGTON      FOG       65  64  97 CALM      30.02R VSB<1/4
PAXTON           N/A     59  58  95 CALM        N/A
BRADY            N/A     62  61  96 CALM        N/A
CALLAWAY         N/A     64  64  99 CALM        N/A
$$

...NORTH PLATTE AREA...

CITY           SKY/WX    TMP DP  RH WIND       PRES   REMARKS
AIRPORT        FOG       63  62  97 SW3       30.03R VSB 1/4
DOWNTOWN         N/A     62  62  99 CALM        N/A
SANDRIDGE        N/A     62  61  97 CALM        N/A
HILLCREST        N/A     61  61  99 CALM        N/A
$$

...SOME WEATHER OBSERVATIONS FROM AROUND THE REGION...

CITY           SKY/WX    TMP DP  RH WIND       PRES   REMARKS
DENVER         CLEAR     63  48  58 SW8       30.17R
LARAMIE        CLEAR     44  37  76 SE8       30.27R
CHEYENNE       CLEAR     56  47  71 CALM      30.18S
SCOTTSBLUFF    FOG       60  59  96 CALM      30.06F VSB 1/4
RAPID CITY     PTCLDY    58  57  97 CALM      29.98F
PIERRE         MOCLDY    64  63  96 SE10      29.96S
WINNER         CLOUDY    66  63  90 SE8       29.99F
SIOUX FALLS    MOCLDY    61  55  81 E6        30.03S
OMAHA          CLOUDY    68  66  93 SE5       29.97S
GRAND ISLAND   MOCLDY    65  63  93 E7        30.00S
KANSAS CITY    CLOUDY    69  67  93 SE9       29.99R
WICHITA        TSTM      71  67  87 N13       29.95F
HAYS           CLOUDY    66  59  77 E8        30.00R
LIBERAL        PTCLDY    70  64  83 N7        29.96S
GOODLAND       FOG       57  56  96 N3        30.06R VSB 1/2
$$



USA.gov is the U.S. government's official web portal to all federal, state and local government web resources and services.